This demonstration page uses our WeatherBlox Daily Observations layout. Learn more.

Left ArrowRight Arrow

39.51506, -84.39828

Hourly Observations for August 3, 2016

Temp ( °F °C ) Dew Point ( °F °C ) Humidity (%) Winds ( mph kmh ) Pressure ( in mb ) Visibility ( mi km ) Precip ( " mm )
12:15 am 00:15 Cloudy 77 24.8 69 20.8 79 79 N N/A 30.03 1017 10 16 N/A
12:35 am 00:35 Mostly Cloudy 77 25.1 69 20.7 77 77 N N/A 30.03 1017 10 16 N/A
12:55 am 00:55 Mostly Cloudy 77 25.1 70 21 78 78 N N/A 30.03 1017 10 16 N/A
1:15 am 01:15 Cloudy 74 23.6 68 20 80 80 N N/A 30.03 1017 10 16 N/A
1:35 am 01:35 Partly Cloudy 74 23.6 67 19.7 79 79 N 3 6 30.03 1017 10 16 N/A
1:55 am 01:55 Mostly Cloudy 74 23.6 67 19.7 79 79 N N/A 30.03 1017 10 16 N/A
2:15 am 02:15 Mostly Cloudy 74 23.6 68 20.1 81 81 N N/A 30.03 1017 10 16 N/A
2:35 am 02:35 Partly Cloudy 74 23.6 68 20.2 81 81 N N/A 30.03 1017 7 11 N/A
2:55 am 02:55 Partly Cloudy 74 23.6 68 20.1 81 81 N 5 7 30.03 1017 10 16 N/A
3:15 am 03:15 Partly Cloudy 74 23.6 68 20 80 80 N N/A 30.03 1017 10 16 N/A
3:35 am 03:35 Clear 74 23.6 68 19.8 79 79 N N/A 30.03 1017 10 16 N/A
3:55 am 03:55 Clear 74 23.5 68 19.9 80 80 N N/A 30.03 1017 10 16 N/A
4:15 am 04:15 Clear 72 22.3 66 18.8 81 81 N N/A 30.03 1017 10 16 N/A
4:35 am 04:35 Clear 72 22.3 66 18.8 81 81 NNW 3 6 30.03 1017 10 16 N/A
4:55 am 04:55 Partly Cloudy 72 22 65 18.2 79 79 N 3 6 30.03 1017 10 16 N/A
5:15 am 05:15 Mostly Cloudy 71 21.6 64 17.8 79 79 N N/A 30.03 1017 10 16 N/A
5:35 am 05:35 Mostly Cloudy 69 20.8 63 17.2 80 80 N N/A 30.03 1017 10 16 N/A
5:55 am 05:55 Partly Cloudy 69 20.8 63 17.2 80 80 N N/A 30.03 1017 10 16 N/A
6:15 am 06:15 Clear 69 20.8 64 17.6 82 82 N N/A 30.03 1017 10 16 N/A
6:35 am 06:35 Clear 69 20.8 64 17.7 83 83 N N/A 30.03 1017 10 16 N/A
6:55 am 06:55 Sunny 69 20.8 64 17.5 82 82 N N/A 30.03 1017 10 16 N/A
7:15 am 07:15 Partly Cloudy 69 20.8 64 17.5 82 82 N 5 7 30.03 1017 10 16 N/A
7:35 am 07:35 Cloudy 71 21.7 65 18.2 81 81 N N/A 30.03 1017 10 16 N/A
7:55 am 07:55 Partly Cloudy 74 23.6 67 19.5 78 78 N 3 6 30.06 1018 10 16 N/A
8:15 am 08:15 Partly Cloudy 74 23.6 66 19.1 76 76 NW 3 6 30.06 1018 10 16 N/A
8:35 am 08:35 Partly Cloudy 74 23.6 65 18.4 73 73 N N/A 30.06 1018 10 16 N/A
8:55 am 08:55 Mostly Cloudy 77 25.1 66 18.9 69 69 NE 5 7 30.06 1018 10 16 N/A
9:15 am 09:15 Mostly Cloudy 77 25.1 65 18.1 65 65 N 3 6 30.06 1018 10 16 N/A
9:35 am 09:35 Partly Cloudy 80 26.5 66 18.9 63 63 NNE 5 7 30.06 1018 10 16 N/A
9:55 am 09:55 Partly Cloudy 80 26.5 64 17.9 59 59 N N/A 30.06 1018 10 16 N/A
10:15 am 10:15 Partly Cloudy 81 27.2 64 17.7 56 56 N N/A 30.06 1018 10 16 N/A
10:35 am 10:35 Sunny 83 28.5 63 17.4 51 51 NNE 3 6 30.06 1018 10 16 N/A
10:55 am 10:55 Sunny 84 29 63 17.1 49 49 NNE 5 7 30.03 1017 10 16 N/A
11:15 am 11:15 Sunny 90 32.1 62 16.7 40 40 NE 6 9 30.03 1017 10 16 N/A
11:35 am 11:35 Sunny 90 32.1 61 16 38 38 NE 3 6 30.03 1017 10 16 N/A
11:55 am 11:55 Sunny 90 32.1 57 13.7 33 33 N 6 9 30.00 1016 10 16 N/A
12:15 pm 12:15 Partly Cloudy 90 32.1 55 12.7 31 31 N N/A 30.00 1016 10 16 N/A
12:35 pm 12:35 Sunny 90 32.1 56 13.6 32 32 NE 3 6 30.00 1016 10 16 N/A
12:55 pm 12:55 Partly Cloudy 90 32.1 55 12.8 31 31 N 3 6 30.00 1016 10 16 N/A
1:15 pm 13:15 Mostly Cloudy 90 32.1 52 11.1 27 27 NE 5 7 30.00 1016 10 16 N/A
1:35 pm 13:35 Partly Cloudy 91 32.7 53 11.6 27 27 N 6 9 30.00 1016 10 16 N/A
1:55 pm 13:55 Partly Cloudy 90 32.1 52 11 27 27 N N/A 30.00 1016 10 16 N/A
2:15 pm 14:15 Sunny 95 35 53 11.6 24 24 NNE 6 9 29.97 1015 10 16 N/A
2:35 pm 14:35 Mostly Cloudy 95 34.9 52 11 23 23 N N/A 29.97 1015 10 16 N/A
2:55 pm 14:55 Mostly Cloudy 90 32.3 51 10.8 27 27 N 3 6 29.97 1015 10 16 N/A
3:15 pm 15:15 Partly Cloudy 90 32.1 53 11.8 29 29 N 8 13 29.97 1015 10 16 N/A
3:35 pm 15:35 Partly Cloudy 90 32.1 53 11.8 29 29 E 3 6 29.97 1015 10 16 N/A
3:55 pm 15:55 Mostly Cloudy 90 32.1 55 12.8 31 31 NE 5 7 29.97 1015 10 16 N/A
4:15 pm 16:15 Mostly Cloudy 90 32.1 55 12.9 31 31 ENE 6 9 29.97 1015 10 16 N/A
4:35 pm 16:35 Partly Cloudy 90 32.3 55 12.8 30 30 ENE 7 11 29.97 1015 10 16 N/A
4:55 pm 16:55 Sunny 95 34.8 56 13.4 27 27 ESE 6 9 29.94 1014 10 16 N/A
5:15 pm 17:15 Partly Cloudy 92 33.6 55 12.9 28 28 SE 8 13 29.94 1014 10 16 N/A
5:35 pm 17:35 Partly Cloudy 95 35 55 13 26 26 N N/A 29.94 1014 10 16 N/A
5:55 pm 17:55 Partly Cloudy 93 33.7 56 13.2 29 29 S 6 9 29.94 1014 10 16 N/A
6:15 pm 18:15 Cloudy 92 33.5 55 12.5 28 28 SE 3 6 29.94 1014 10 16 N/A
6:35 pm 18:35 Cloudy 91 32.6 54 12.4 29 29 ESE 5 7 29.94 1014 10 16 N/A
6:55 pm 18:55 Cloudy 90 32.1 57 13.7 33 33 SE 3 6 29.94 1014 10 16 N/A
7:15 pm 19:15 Cloudy 90 32.1 57 13.8 33 33 ESE 3 6 29.94 1014 10 16 N/A
7:35 pm 19:35 Cloudy 90 32.1 57 14.1 34 34 SSE 5 7 29.94 1014 10 16 N/A
7:55 pm 19:55 Cloudy 84 29 64 17.5 50 50 WSW 5 7 29.94 1014 10 16 N/A
8:15 pm 20:15 Cloudy 83 28.1 66 18.7 57 57 N N/A 29.94 1014 10 16 N/A
8:35 pm 20:35 Partly Cloudy 82 28 66 18.8 57 57 N N/A 29.94 1014 10 16 N/A
8:55 pm 20:55 Partly Cloudy 81 27.1 68 19.9 65 65 N N/A 29.97 1015 10 16 N/A
9:15 pm 21:15 Mostly Cloudy 80 26.5 68 19.9 67 67 N N/A 29.97 1015 10 16 N/A
9:35 pm 21:35 Cloudy 80 26.5 68 20 68 68 NNW 3 6 29.97 1015 7 11 N/A
9:55 pm 21:55 Cloudy 79 26.1 69 20.5 71 71 N N/A 30.00 1016 10 16 N/A
10:15 pm 22:15 Mostly Cloudy 77 25.1 68 19.8 73 73 N N/A 30.00 1016 10 16 N/A
10:35 pm 22:35 Partly Cloudy 77 25.1 68 20.1 74 74 NNE 3 6 30.00 1016 10 16 N/A
10:55 pm 22:55 Clear 75 24 66 19.1 74 74 N N/A 30.00 1016 10 16 N/A
11:15 pm 23:15 Clear 74 23.6 66 19.1 76 76 N N/A 30.00 1016 10 16 N/A
11:35 pm 23:35 Clear 74 23.6 66 19.1 76 76 N N/A 30.00 1016 10 16 N/A
11:55 pm 23:55 Clear 74 23.6 68 19.8 79 79 N N/A 30.00 1016 10 16 N/A

Powered by AerisWeather